Regional Weather Roundup
Issued by NWS Cleveland, OH

Home | Current Version | Previous Version | Graphics & Text | Print | Product List | Glossary On
Versions: 1 2 3 4 5 6 7 8 9 10 11 12 13 14 15 16 17 18 19 20 21 22 23 24 25 26 27 28 29 30 31 32 33 34 35 36 37 38 39 40 41 42 43 44 45 46 47 48 49 50
724
ASUS41 KCLE 311912
RWRCLE
OHIO REGIONAL WEATHER ROUNDUP
NATIONAL WEATHER SERVICE WILMINGTON, OH
300 PM EDT TUE MAY 31 2016

NOTE: "FAIR" INDICATES FEW OR NO CLOUDS BELOW 12,000 FEET WITH NO
SIGNIFICANT WEATHER AND/OR OBSTRUCTIONS TO VISIBILITY.

OHZ001>008-015>018-024>027-034-035-043-044-312000-
   NORTHWEST OHIO

CITY           SKY/WX    TMP DP  RH WIND       PRES   REMARKS
DEFIANCE       FAIR      84  50  30 E7        30.02S
FINDLAY        FAIR      85  52  32 NE8G16    30.00F
TOLEDO EXPRESS FAIR      83  51  33 NE10G18   30.03S
TOLEDO EXEC    FAIR      80  52  37 NE12      30.05R
LIMA           FAIR      85  51  31 NE7       30.01S
$$

OHZ009>014-019>023-028>033-038-089-312000-
   NORTHEAST OHIO

CITY           SKY/WX    TMP DP  RH WIND       PRES   REMARKS
CLE-HOPKINS    PTSUNNY   77  57  50 N13       30.04F
CLE-LAKEFRONT  FAIR      71  63  75 NE14      30.02S
CUY CO. ARPT   PTSUNNY   79  57  47 NE14      30.04S
LORAIN-ELYRIA  FAIR      79  51  37 E16       30.03F
ASHTABULA      FAIR      78  53  41 VRB6      30.04F
AKRON-CANTON   PTSUNNY   85  54  34 N6        30.00F
WOOSTER        FAIR      84  55  36 NE9       30.01F
MANSFIELD      FAIR      82  58  43 N8        30.02F
YOUNGSTOWN     CLOUDY    84  56  38 N13       30.01F
$$

OHZ042-051>053-060>062-070>072-077>081-312000-
  SOUTHWEST OHIO

CITY           SKY/WX    TMP DP  RH WIND       PRES   REMARKS
CINC-COVINGTON CLOUDY    84  59  42 S3        29.99S
CINC-LUNKEN    PTSUNNY   85  61  44 E3        29.97F
HAMILTON       FAIR      87  60  40 CALM      29.98F
DAYTON         PTSUNNY   87  54  32 VRB5      29.99F
WRIGHT-PAT AFB MOSUNNY   87  54  31 E7        29.97F
DAYTON GENERAL PTSUNNY   84  56  38 S6        29.98F
WILMINGTON     CLOUDY    84  55  36 E3        29.99F
$$

OHZ036-037-039>041-045>050-054>059-063>069-073>076-082>088-312000-
  CENTRAL AND SOUTHEAST OHIO

CITY           SKY/WX    TMP DP  RH WIND       PRES   REMARKS
COLUMBUS       CLOUDY    84  56  38 NW3       29.97F
OSU AIRPORT    FAIR      85  57  38 N8        29.98F
BOLTON FIELD   MOSUNNY  N/A N/A N/A CALM      29.98F
RICKENBACK AFB FAIR      85  55  35 CALM      29.97S
NEWARK         FAIR      89  53  29 NW6       29.97F
MARION         FAIR      85  50  29 CALM      30.00F
LANCASTER      FAIR      86  56  35 W5        29.98F
ZANESVILLE     PTSUNNY   88  57  34 CALM      29.98F
NEW PHILLY     FAIR      88  51  28 W7        29.98F
$$




USA.gov is the U.S. government's official web portal to all federal, state and local government web resources and services.